Home   Weather   Paradise   Past weeks

Flag for USA Past Weather in Paradise, California, USA — Yesterday and Last 2 Weeks

Now
43 °F

Clear.


Feels Like: 43 °F
Forecast: 36 / 51 °F
Wind: No wind

Location: Chico Municipal

Current Time: Jan 16, 2017 at 6:56:02 pm

Latest Report: Jan 16, 2017 at 6:35 pm


Visibility: 10 mi

Pressure: 30.15 "Hg (28.27 "Hg at 527m altitude)

Humidity: 87%

Dew Point: 39 °F

Location of ParadiseLocation

Past Weather in Paradise — Graph

°F

Paradise Temperature Yesterday

Maximum temperature yesterday: 48 °F (at 2:50 pm)
Minimum temperature yesterday: 37 °F (at 12:35 am)
Average temperature yesterday: 40 °F

High & Low Weather Summary for the Past Weeks

 TemperatureHumidityPressure
High59 °F (Jan 8, 1:58 pm)100% (Jan 1, 4:55 pm)30.28 "Hg (Jan 1, 4:55 pm)
Low25 °F (Jan 6, 4:55 am)42% (Jan 6, 3:46 pm)29.57 "Hg (Jan 10, 5:55 pm)
Average44 °F88%30.01 "Hg
* Reported Jan 1 4:55 pm — Jan 16 4:50 pm, Paradise, Weather by CustomWeather, © 2017

Note: Actual official high and low records may vary slightly from our data, if they occured in-between our weather recording intervals... More about our weather records

Advertising

Paradise Weather History for the Previous 24 Hours

Scroll right to see more
 ConditionsComfort  
Time TempWeatherWind HumidityBarometerVisibility
4:50 pm
Mon, Jan 16
46 °FSunny.6 mph82%30.14 "Hg10 mi
3:45 pm48 °FSunny.7 mph71%30.13 "Hg10 mi
2:47 pm48 °FSunny.9 mph76%30.14 "Hg10 mi
1:45 pm45 °FSunny.7 mph81%30.15 "Hg10 mi
12:48 pm43 °FFog.12 mph87%30.17 "Hg3 mi
11:50 am39 °FFog.7 mph100%30.21 "Hg4 mi
10:47 am36 °FFog.8 mph100%30.22 "Hg1 mi
10:20 am37 °FFog.9 mph93%30.21 "Hg1 mi
9:47 am37 °FScattered clouds.6 mph93%30.20 "Hg25 mi
8:46 am32 °FScattered clouds.No wind100%30.19 "Hg40 mi
7:46 am32 °FScattered clouds.No wind100%30.18 "Hg40 mi
6:55 am28 °FPassing clouds.5 mph100%30.18 "Hg10 mi
5:35 am28 °FClear.No wind100%30.16 "Hg10 mi
5:15 am30 °FClear.No wind100%30.16 "Hg10 mi
4:55 am28 °FClear.3 mph100%30.17 "Hg10 mi
4:15 am30 °FPassing clouds.5 mph100%30.18 "Hg10 mi
3:35 am32 °FPassing clouds.6 mph100%30.18 "Hg1 mi
2:55 am32 °FClear.6 mph100%30.19 "Hg10 mi
2:15 am36 °FClear.No wind93%30.19 "Hg10 mi
1:35 am36 °FClear.No wind100%30.19 "Hg10 mi
12:55 am37 °FClear.3 mph93%30.20 "Hg10 mi
12:15 am37 °FClear.6 mph93%30.21 "Hg10 mi
11:35 pm
Sun, Jan 15
37 °FClear.3 mph93%30.23 "Hg10 mi
10:55 pm37 °FClear.6 mph100%30.22 "Hg10 mi
10:15 pm37 °FClear.6 mph93%30.22 "Hg10 mi
9:35 pm37 °FClear.No wind100%30.21 "Hg10 mi
8:55 pm39 °FClear.No wind93%30.21 "Hg10 mi
8:15 pm39 °FClear.No wind93%30.19 "Hg10 mi
7:55 pm39 °FClear.3 mph93%30.19 "Hg10 mi
7:15 pm41 °FClear.No wind93%30.18 "Hg10 mi
6:55 pm39 °FClear.No wind100%30.17 "Hg10 mi
6:35 pm41 °FClear.No wind93%30.16 "Hg10 mi
Weather by CustomWeather, © 2017

See weather overviewHow to use our weather pages